Regional Weather Roundup
Issued by NWS

Home | Current Version | Previous Version | Graphics & Text | Print | Product List | Glossary On
Versions: 1 2 3 4 5 6 7 8 9 10 11 12 13 14 15 16 17 18 19 20 21 22 23 24 25 26 27 28 29 30 31 32 33 34 35 36 37 38 39 40 41 42 43 44 45 46 47 48 49 50
000
ASUS43 KBIS 211210
RWRND

NORTH DAKOTA REGIONAL WEATHER ROUNDUP
NATIONAL WEATHER SERVICE BISMARCK ND
700 AM CDT SUN SEP 21 2014

NOTE: "FAIR" INDICATES FEW OR NO CLOUDS BELOW 12,000 FEET WITH NO
SIGNIFICANT WEATHER AND/OR OBSTRUCTIONS TO VISIBILITY.


NDZ001>003-009>011-017-211300-
NORTHWEST NORTH DAKOTA

CITY           SKY/WX    TMP DP  RH WIND       PRES   REMARKS
WILLISTON      CLEAR     38  34  85 SW5       30.27R
6HR MIN TEMP:  38; 6HR MAX TEMP:  52;

MINOT          CLEAR     46  40  79 SW9       30.21R
MINOT AFB      CLEAR     46  43  90 W10       30.21R
$$

NDZ018>021-031>035-040>046-211300-
SOUTHWEST NORTH DAKOTA

CITY           SKY/WX    TMP DP  RH WIND       PRES   REMARKS
BISMARCK       CLEAR     48  42  80 W6        30.25R
6HR MIN TEMP:  44; 6HR MAX TEMP:  55;

DICKINSON      CLEAR     41  34  76 W10       30.27R
GARRISON         N/A     44  40  85 NW9       30.22R
6HR MIN TEMP:  44; 6HR MAX TEMP:  51;

HETTINGER ARPT CLEAR     37  32  82 NW8       30.30R
$$

NDZ004>008-012>016-024-026-027-054-211300-
NORTHEAST NORTH DAKOTA

CITY           SKY/WX    TMP DP  RH WIND       PRES   REMARKS
GRAND FORKS    PTCLDY    47  46  97 W6        30.12R
GRND FRKS AFB  CLEAR     49  49  99 NW9       30.14R
DEVILS LAKE    CLEAR     46  39  76 W8        30.16R
$$

NDZ022-023-025-028>030-036>039-047>053-211300-
SOUTHEAST NORTH DAKOTA

CITY           SKY/WX    TMP DP  RH WIND       PRES   REMARKS
FARGO          CLEAR     50  47  89 NW8       30.12R
6HR MIN TEMP:  49; 6HR MAX TEMP:  55;

JAMESTOWN      CLEAR     47  44  90 NW8       30.17R
$$




USA.gov is the U.S. government's official web portal to all federal, state and local government web resources and services.